Find Starlink 37136

NORAD ID: 68347 Int'l Des: 2026-059 Owner: SPXS Country: US Constellation: starlink operational
LEOCIRCULAR

Live Position

Loading 3D Globe...

About Starlink 37136

Description loading...

Upcoming Passes

Passes for default location (London). Set your location on the main map for personalized predictions.

Altitude History

Loading altitude history...

Two-Line Element Set

1 68347U 26059AC 26127.23359557 .00013420 00000-0 46445-3 0 9993
2 68347 53.1593 75.9959 0001351 97.4689 262.6466 15.30197747 7141
Epoch: May 7, 2026 • Age: 8 hours

Current Status

Altitude 479.2 km
Velocity 7.63 km/s
Sub-Earth Point 45.85°N, 129.56°E
Launch Date Mar 22, 2026
Age 0.1 years
Type internet

Technical Details

Classification Payload
Mass 575.00 kg
Dry Mass 530.00 kg
Total Mass 575.00 kg
Length 0.30 m
Diameter 4.10 m
Span 29.00 m
Shape Box + pan
Manufacturer SPXS
Bus Type Starlink V2MO
Phase Status In Orbit
Owner/State SPXS/US

Most Searched